Tracking 30922 objects as of 2-Jul-2025
HD Live streaming from Space Station
objects crossing your sky now

BREEZE-M R/B

Track BREEZE-M R/B now!


NORAD ID: 37186
Int'l Code: 2010-053B
Perigee: 3,607.3 km
Apogee: 34,047.6 km
Inclination: 22.8 °
Period: 663.5 minutes
Semi major axis: 25198 km
RCS: 7.5201 m2 (large)
Launch date: October 14, 2010
Source: Commonwealth of Independent States (former USSR) (CIS)
Launch site: TYURATAM MISSILE AND SPACE COMPLEX (TTMTR)

Note: This is a ROCKET BODY
Your satellite tracking list
STARLINK-4326
Track 1 satellite(s)




NASA's NSSDC Master Catalog

Two Line Element Set (TLE):
1 37186U 10053B   25182.77881301 -.00000118  00000-0  00000-0 0  9998
2 37186  22.8172   6.1402 6040128  18.5981 124.0695  2.17041548116642
Source of the keplerian elements: AFSPC